TimeCDT,TemperatureF,Dew PointF,Humidity,Sea Level PressureIn,VisibilityMPH,Wind Direction,Wind SpeedMPH,Gust SpeedMPH,PrecipitationIn,Events,Conditions,WindDirDegrees,DateUTC
12:53 AM,57.0,53.1,87,29.97,10.0,SSE,10.4,-,N/A,,Clear,150,2013-03-30 05:53:00
1:53 AM,55.0,52.0,89,29.95,10.0,South,12.7,-,N/A,,Clear,180,2013-03-30 06:53:00
2:53 AM,54.0,53.1,97,29.95,9.0,South,8.1,-,N/A,,Clear,180,2013-03-30 07:53:00
3:47 AM,50.0,50.0,100,29.99,1.0,NE,4.6,-,N/A,,Mist,40,2013-03-30 08:47:00
3:49 AM,48.2,48.2,100,29.99,0.5,Variable,3.5,-,N/A,Fog,Fog,0,2013-03-30 08:49:00
3:53 AM,48.9,48.0,97,29.96,0.5,Calm,Calm,-,N/A,Fog,Fog,0,2013-03-30 08:53:00
3:57 AM,50.0,48.2,94,29.99,0.8,ENE,3.5,-,N/A,,Clear,70,2013-03-30 08:57:00
4:05 AM,51.8,50.0,94,29.99,1.5,ESE,3.5,-,N/A,,Clear,110,2013-03-30 09:05:00
4:09 AM,48.2,48.2,100,29.99,0.5,Calm,Calm,-,N/A,Fog,Fog,0,2013-03-30 09:09:00
4:38 AM,46.4,46.4,100,29.98,0.2,SSE,6.9,-,N/A,Fog,Fog,160,2013-03-30 09:38:00
4:53 AM,46.0,46.0,100,29.95,0.2,South,4.6,-,N/A,Fog,Fog,170,2013-03-30 09:53:00
5:53 AM,46.0,45.0,96,29.97,0.2,South,3.5,-,N/A,Fog,Fog,170,2013-03-30 10:53:00
6:53 AM,46.9,46.0,97,29.97,0.2,South,5.8,-,N/A,Fog,Fog,170,2013-03-30 11:53:00
7:08 AM,46.4,46.4,100,30.00,0.8,South,3.5,-,N/A,,Mist,190,2013-03-30 12:08:00
7:18 AM,46.4,46.4,100,30.01,0.5,Calm,Calm,-,N/A,Fog,Fog,0,2013-03-30 12:18:00
7:27 AM,46.4,46.4,100,30.00,0.5,South,3.5,-,N/A,Fog,Fog,190,2013-03-30 12:27:00
7:44 AM,44.6,44.6,100,30.00,0.2,South,5.8,-,N/A,Fog,Fog,190,2013-03-30 12:44:00
7:53 AM,46.0,45.0,96,29.98,0.2,SSW,5.8,-,N/A,Fog,Fog,200,2013-03-30 12:53:00
8:15 AM,50.0,50.0,100,30.00,1.0,SSW,4.6,-,N/A,,Mist,210,2013-03-30 13:15:00
8:26 AM,51.8,50.0,94,30.00,0.8,SSW,4.6,-,N/A,,Mist,200,2013-03-30 13:26:00
8:33 AM,51.8,51.8,100,30.00,0.2,SSW,4.6,-,N/A,Fog,Fog,200,2013-03-30 13:33:00
8:53 AM,54.0,53.1,97,29.98,0.5,SSW,8.1,-,N/A,Fog,Fog,200,2013-03-30 13:53:00
8:56 AM,53.6,53.6,100,30.00,1.0,SSW,6.9,-,N/A,,Mist,200,2013-03-30 13:56:00
9:02 AM,53.6,53.6,100,30.00,3.0,SSW,9.2,-,N/A,,Mostly Cloudy,200,2013-03-30 14:02:00
9:15 AM,55.4,53.6,94,30.00,6.0,SSW,11.5,-,N/A,,Scattered Clouds,200,2013-03-30 14:15:00
9:53 AM,60.1,55.9,86,29.97,10.0,WSW,8.1,-,N/A,,Clear,240,2013-03-30 14:53:00
10:53 AM,64.0,57.0,78,29.96,10.0,WSW,5.8,-,N/A,,Clear,250,2013-03-30 15:53:00
11:53 AM,69.1,55.0,61,29.96,10.0,North,6.9,-,N/A,,Clear,10,2013-03-30 16:53:00
12:53 PM,73.9,53.1,48,29.94,10.0,North,6.9,-,N/A,,Clear,10,2013-03-30 17:53:00
1:53 PM,75.9,51.1,42,29.92,10.0,NNE,9.2,-,N/A,,Clear,30,2013-03-30 18:53:00
2:53 PM,78.1,51.1,39,29.89,10.0,East,6.9,-,N/A,,Clear,80,2013-03-30 19:53:00
3:53 PM,79.0,50.0,36,29.88,10.0,Variable,5.8,-,N/A,,Clear,0,2013-03-30 20:53:00
4:53 PM,79.0,48.9,35,29.87,10.0,ESE,8.1,-,N/A,,Clear,110,2013-03-30 21:53:00
5:53 PM,77.0,51.1,40,29.87,10.0,SSE,3.5,-,0.00,,Scattered Clouds,160,2013-03-30 22:53:00
6:53 PM,73.0,53.1,49,29.87,10.0,SE,5.8,-,N/A,,Clear,130,2013-03-30 23:53:00
7:53 PM,64.9,53.1,65,29.88,10.0,SSE,5.8,-,N/A,,Clear,160,2013-03-31 00:53:00
8:53 PM,62.1,50.0,65,29.88,10.0,South,5.8,-,N/A,,Clear,170,2013-03-31 01:53:00
9:53 PM,57.9,48.9,72,29.90,10.0,South,6.9,-,N/A,,Clear,180,2013-03-31 02:53:00
10:53 PM,60.1,51.1,72,29.89,10.0,South,8.1,-,N/A,,Clear,170,2013-03-31 03:53:00
11:53 PM,64.9,55.0,70,29.88,10.0,NE,5.8,-,N/A,,Clear,40,2013-03-31 04:53:00